"FILENAME","TIMESTAMP","SAMPLE","STATION","LATITUDE","LONGITUDE","SAMPLE_DATE","SAMPLE_TIME","DEPTH","DEPTH_UNITS","CHLOROPHYLLQ","CHLOROPHYLLV","CHLOROPHYLLU","DENSITYQ","DENSITYV","DENSITYU","DOQ","DOV","DOU","SALINITYQ","SALINITYV","SALINITYU","SUSOQ","SUSOV","SUSOU","TEMPQ","TEMPV","TEMPU","PHQ","PHV","PHU","OGQ","OGV","OGU","XMSQ","XMSV","XMSU",
"200412WQSBOO.csv","2008MAY30085315","1204042970","I25",  32.56117,-117.14800,"20041204",846,2,"m","",3.4477,"ug/L","",24.7835,"sigma-t","",8.10507,"mg/L","",33.1888,"ppt","",,"","",14,"C","",8.132,"pH","",,"","",77,"%",
"200412WQSBOO.csv","2008MAY30085315","1204042971","I25",  32.56117,-117.14800,"20041204",846,6,"m","",4.2048,"ug/L","",24.7843,"sigma-t","",8.1299,"mg/L","",33.1897,"ppt","",,"","",14,"C","",8.136,"pH","",,"","",77,"%",
"200412WQSBOO.csv","2008MAY30085315","1204042972","I25",  32.56117,-117.14800,"20041204",846,9,"m","",3.9183,"ug/L","",24.7834,"sigma-t","",8.10454,"mg/L","",33.1889,"ppt","",,"","",14,"C","",8.138,"pH","",,"","",76,"%",
"200412WQSBOO.csv","2008MAY30085315","1204042973","I26",  32.57450,-117.14700,"20041204",858,2,"m","",4.3392,"ug/L","",24.7329,"sigma-t","",8.32012,"mg/L","",33.1829,"ppt","",,"","",14.2,"C","",8.151,"pH","",,"","",78,"%",
"200412WQSBOO.csv","2008MAY30085315","1204042974","I26",  32.57450,-117.14700,"20041204",858,6,"m","",4.8069,"ug/L","",24.7327,"sigma-t","",8.30887,"mg/L","",33.1833,"ppt","",,"","",14.2,"C","",8.155,"pH","",,"","",78,"%",
"200412WQSBOO.csv","2008MAY30085315","1204042975","I26",  32.57450,-117.14700,"20041204",858,9,"m","",4.8007,"ug/L","",24.7316,"sigma-t","",8.27788,"mg/L","",33.1831,"ppt","",,"","",14.2,"C","",8.156,"pH","",,"","",78,"%",
"200412WQSBOO.csv","2008MAY30085315","1204042976","I39",  32.57233,-117.16750,"20041204",827,2,"m","",4.1087,"ug/L","",24.6898,"sigma-t","",7.8248,"mg/L","",33.1709,"ppt","",,"","",14.4,"C","",8.154,"pH","",,"","",83,"%",
"200412WQSBOO.csv","2008MAY30085315","1204042977","I39",  32.57233,-117.16750,"20041204",827,12,"m","",5.8271,"ug/L","",24.7715,"sigma-t","",7.90156,"mg/L","",33.1785,"ppt","",,"","",14,"C","",8.126,"pH","",,"","",71,"%",
"200412WQSBOO.csv","2008MAY30085315","1204042978","I39",  32.57233,-117.16750,"20041204",827,18,"m","",4.9089,"ug/L","",24.801,"sigma-t","",7.55258,"mg/L","",33.1737,"ppt","",,"","",13.9,"C","",8.097,"pH","",,"","",54,"%",
"200412WQSBOO.csv","2008MAY30085315","1206041233","I30",  32.59533,-117.19700,"20041206",955,2,"m","",,"","",,"","",,"","",,"","",,"","",,"","",,"","<",.2,"mg/L",
"200412WQSBOO.csv","2008MAY30085315","1206041234","I32",  32.59467,-117.13800,"20041206",1034,2,"m","",,"","",,"","",,"","",,"","",,"","",,"","",,"","<",.2,"mg/L",
"200412WQSBOO.csv","2008MAY30085315","1206041235","I33",  32.62383,-117.23700,"20041206",850,2,"m","",,"","",,"","",,"","",,"","",,"","",,"","",,"","<",.2,"mg/L",
"200412WQSBOO.csv","2008MAY30085315","1206041236","I36",  32.63917,-117.15400,"20041206",1100,2,"m","",,"","",,"","",,"","",,"","",,"","",,"","",,"","<",.2,"mg/L",
"200412WQSBOO.csv","2008MAY30085315","1206041237","I37",  32.64800,-117.21633,"20041206",827,2,"m","",,"","",,"","",,"","",,"","",,"","",,"","",,"","<",.2,"mg/L",
"200412WQSBOO.csv","2008MAY30085315","1206041238","I38",  32.66883,-117.18667,"20041206",1136,2,"m","",,"","",,"","",,"","",,"","",,"","",,"","",,"","<",.2,"mg/L",
"200412WQSBOO.csv","2008MAY30085315","1206041257","I30",  32.59533,-117.19700,"20041206",955,2,"m","",,"","",,"","",,"","",,"","",1.8,"mg/L","",,"","",,"","",,"",
"200412WQSBOO.csv","2008MAY30085315","1206041258","I30",  32.59533,-117.19700,"20041206",955,2,"m","",,"","",,"","",,"","",,"","<",.2,"mg/L","",,"","",,"","",,"",
"200412WQSBOO.csv","2008MAY30085315","1206041259","I30",  32.59533,-117.19700,"20041206",955,18,"m","",,"","",,"","",,"","",,"","<",.2,"mg/L","",,"","",,"","",,"",
"200412WQSBOO.csv","2008MAY30085315","1206041260","I30",  32.59533,-117.19700,"20041206",955,27,"m","",,"","",,"","",,"","",,"","<",.2,"mg/L","",,"","",,"","",,"",
"200412WQSBOO.csv","2008MAY30085315","1206041261","I32",  32.59467,-117.13800,"20041206",1034,2,"m","",,"","",,"","",,"","",,"","",25.1,"mg/L","",,"","",,"","",,"",
"200412WQSBOO.csv","2008MAY30085315","1206041262","I32",  32.59467,-117.13800,"20041206",1034,6,"m","",,"","",,"","",,"","",,"","",25.4,"mg/L","",,"","",,"","",,"",
"200412WQSBOO.csv","2008MAY30085315","1206041263","I32",  32.59467,-117.13800,"20041206",1034,9,"m","",,"","",,"","",,"","",,"","",68.2,"mg/L","",,"","",,"","",,"",
"200412WQSBOO.csv","2008MAY30085315","1206041264","I33",  32.62383,-117.23700,"20041206",850,2,"m","",,"","",,"","",,"","",,"","",3.9,"mg/L","",,"","",,"","",,"",
"200412WQSBOO.csv","2008MAY30085315","1206041265","I33",  32.62383,-117.23700,"20041206",850,18,"m","",,"","",,"","",,"","",,"","",3.6,"mg/L","",,"","",,"","",,"",
"200412WQSBOO.csv","2008MAY30085315","1206041266","I33",  32.62383,-117.23700,"20041206",850,27,"m","",,"","",,"","",,"","",,"","",4.7,"mg/L","",,"","",,"","",,"",
"200412WQSBOO.csv","2008MAY30085315","1206041267","I36",  32.63917,-117.15400,"20041206",1100,2,"m","",,"","",,"","",,"","",,"","",5.9,"mg/L","",,"","",,"","",,"",
"200412WQSBOO.csv","2008MAY30085315","1206041268","I36",  32.63917,-117.15400,"20041206",1100,6,"m","",,"","",,"","",,"","",,"","",4.4,"mg/L","",,"","",,"","",,"",
"200412WQSBOO.csv","2008MAY30085315","1206041269","I36",  32.63917,-117.15400,"20041206",1100,11,"m","",,"","",,"","",,"","",,"","",6.2,"mg/L","",,"","",,"","",,"",
"200412WQSBOO.csv","2008MAY30085315","1206041270","I37",  32.64800,-117.21633,"20041206",827,2,"m","",,"","",,"","",,"","",,"","",3.6,"mg/L","",,"","",,"","",,"",
"200412WQSBOO.csv","2008MAY30085315","1206041271","I37",  32.64800,-117.21633,"20041206",827,2,"m","",,"","",,"","",,"","",,"","",7.9,"mg/L","",,"","",,"","",,"",
"200412WQSBOO.csv","2008MAY30085315","1206041272","I37",  32.64800,-117.21633,"20041206",827,6,"m","",,"","",,"","",,"","",,"","",6.7,"mg/L","",,"","",,"","",,"",
"200412WQSBOO.csv","2008MAY30085315","1206041273","I37",  32.64800,-117.21633,"20041206",827,11,"m","",,"","",,"","",,"","",,"","",3.2,"mg/L","",,"","",,"","",,"",
"200412WQSBOO.csv","2008MAY30085315","1206041274","I38",  32.66883,-117.18667,"20041206",1136,2,"m","",,"","",,"","",,"","",,"","",4.2,"mg/L","",,"","",,"","",,"",
"200412WQSBOO.csv","2008MAY30085315","1206041275","I38",  32.66883,-117.18667,"20041206",1136,6,"m","",,"","",,"","",,"","",,"","",5.3,"mg/L","",,"","",,"","",,"",
"200412WQSBOO.csv","2008MAY30085315","1206041276","I38",  32.66883,-117.18667,"20041206",1136,11,"m","",,"","",,"","",,"","",,"","",12.6,"mg/L","",,"","",,"","",,"",
"200412WQSBOO.csv","2008MAY30085315","1206042000","I31",  32.59550,-117.17200,"20041206",,18,"m","",2.0644,"ug/L","",24.518,"sigma-t","",7.94335,"mg/L","",33.2144,"ppt","",,"","",15.4,"C","",8.123,"pH","",,"","",89,"%",
"200412WQSBOO.csv","2008MAY30085315","1206042001","I32",  32.59467,-117.13800,"20041206",1034,2,"m","",2.329,"ug/L","",24.4818,"sigma-t","",8.29667,"mg/L","",33.0651,"ppt","",,"","",15,"C","",8.089,"pH","",,"","",9,"%",
"200412WQSBOO.csv","2008MAY30085315","1206042002","I32",  32.59467,-117.13800,"20041206",1034,6,"m","",3.2275,"ug/L","",24.5125,"sigma-t","",7.96423,"mg/L","",33.0983,"ppt","",,"","",15,"C","",8.093,"pH","",,"","",8,"%",
"200412WQSBOO.csv","2008MAY30085315","1206042003","I32",  32.59467,-117.13800,"20041206",1034,9,"m","",5.9175,"ug/L","",24.5442,"sigma-t","",7.53861,"mg/L","",33.1356,"ppt","",,"","",15,"C","",8.082,"pH","",,"","",4,"%",
"200412WQSBOO.csv","2008MAY30085315","1206042004","I33",  32.62383,-117.23700,"20041206",850,2,"m","",1.0244,"ug/L","",24.3635,"sigma-t","",7.78614,"mg/L","",33.2367,"ppt","",,"","",16.1,"C","",8.144,"pH","",,"","",91,"%",
"200412WQSBOO.csv","2008MAY30085315","1206042005","I33",  32.62383,-117.23700,"20041206",850,18,"m","",1.8611,"ug/L","",24.4517,"sigma-t","",7.86295,"mg/L","",33.2365,"ppt","",,"","",15.7,"C","",8.146,"pH","",,"","",90,"%",
"200412WQSBOO.csv","2008MAY30085315","1206042006","I33",  32.62383,-117.23700,"20041206",850,27,"m","",2.4208,"ug/L","",24.52,"sigma-t","",7.92743,"mg/L","",33.2091,"ppt","",,"","",15.3,"C","",8.143,"pH","",,"","",79,"%",
"200412WQSBOO.csv","2008MAY30085315","1206042007","I34",  32.63000,-117.21600,"20041206",,2,"m","",1.2015,"ug/L","",24.3819,"sigma-t","",7.78788,"mg/L","",33.2424,"ppt","",,"","",16.1,"C","",8.144,"pH","",,"","",91,"%",
"200412WQSBOO.csv","2008MAY30085315","1206042008","I34",  32.63000,-117.21600,"20041206",,12,"m","",1.7095,"ug/L","",24.4148,"sigma-t","",7.88041,"mg/L","",33.2232,"ppt","",,"","",15.9,"C","",8.145,"pH","",,"","",91,"%",
"200412WQSBOO.csv","2008MAY30085315","1206042009","I34",  32.63000,-117.21600,"20041206",,18,"m","",2.9216,"ug/L","",24.6469,"sigma-t","",7.95573,"mg/L","",33.2329,"ppt","",,"","",14.8,"C","",8.141,"pH","",,"","",77,"%",
"200412WQSBOO.csv","2008MAY30085315","1206042010","I35",  32.63667,-117.18200,"20041206",,2,"m","",.6616,"ug/L","",24.4519,"sigma-t","",7.92916,"mg/L","",33.2215,"ppt","",,"","",15.7,"C","",8.094,"pH","",,"","",90,"%",
"200412WQSBOO.csv","2008MAY30085315","1206042011","I35",  32.63667,-117.18200,"20041206",,12,"m","",1.5532,"ug/L","",24.4973,"sigma-t","",7.97777,"mg/L","",33.2153,"ppt","",,"","",15.5,"C","",8.097,"pH","",,"","",89,"%",
"200412WQSBOO.csv","2008MAY30085315","1206042012","I35",  32.63667,-117.18200,"20041206",,18,"m","",2.1727,"ug/L","",24.53,"sigma-t","",7.71073,"mg/L","",33.2077,"ppt","",,"","",15.3,"C","",8.093,"pH","",,"","",87,"%",
"200412WQSBOO.csv","2008MAY30085315","1206042013","I36",  32.63917,-117.15400,"20041206",1100,2,"m","",.999,"ug/L","",24.5419,"sigma-t","",8.02409,"mg/L","",33.2038,"ppt","",,"","",15.2,"C","",8.083,"pH","",,"","",87,"%",
"200412WQSBOO.csv","2008MAY30085315","1206042014","I36",  32.63917,-117.15400,"20041206",1100,6,"m","",1.36,"ug/L","",24.5761,"sigma-t","",8.08651,"mg/L","",33.2091,"ppt","",,"","",15.1,"C","",8.084,"pH","",,"","",87,"%",
"200412WQSBOO.csv","2008MAY30085315","1206042015","I36",  32.63917,-117.15400,"20041206",1100,11,"m","",2.3609,"ug/L","",24.5802,"sigma-t","",8.12107,"mg/L","",33.1871,"ppt","",,"","",15,"C","",8.079,"pH","",,"","",77,"%",
"200412WQSBOO.csv","2008MAY30085315","1206042016","I37",  32.64800,-117.21633,"20041206",827,2,"m","",1.4283,"ug/L","",24.4201,"sigma-t","",7.82237,"mg/L","",33.2015,"ppt","",,"","",15.8,"C","",8.106,"pH","",,"","",90,"%",
"200412WQSBOO.csv","2008MAY30085315","1206042017","I37",  32.64800,-117.21633,"20041206",827,6,"m","",1.423,"ug/L","",24.4369,"sigma-t","",7.84909,"mg/L","",33.2264,"ppt","",,"","",15.8,"C","",8.113,"pH","",,"","",90,"%",
"200412WQSBOO.csv","2008MAY30085315","1206042018","I37",  32.64800,-117.21633,"20041206",827,11,"m","",1.7529,"ug/L","",24.5269,"sigma-t","",7.93879,"mg/L","",33.2368,"ppt","",,"","",15.4,"C","",8.117,"pH","",,"","",90,"%",
"200412WQSBOO.csv","2008MAY30085315","1206042019","I38",  32.66883,-117.18667,"20041206",1136,2,"m","",.7744,"ug/L","",24.5797,"sigma-t","",8.05706,"mg/L","",33.2032,"ppt","",,"","",15,"C","",8.091,"pH","",,"","",86,"%",
"200412WQSBOO.csv","2008MAY30085315","1206042020","I38",  32.66883,-117.18667,"20041206",1136,6,"m","",1.1589,"ug/L","",24.614,"sigma-t","",8.07461,"mg/L","",33.1981,"ppt","",,"","",14.9,"C","",8.094,"pH","",,"","",87,"%",
"200412WQSBOO.csv","2008MAY30085315","1206042021","I38",  32.66883,-117.18667,"20041206",1136,11,"m","",8.9946,"ug/L","",24.6837,"sigma-t","",8.02904,"mg/L","",33.1933,"ppt","",,"","",14.5,"C","",8.078,"pH","",,"","",37,"%",
"200412WQSBOO.csv","2008MAY30085315","1206042989","I28",  32.59383,-117.26400,"20041206",,2,"m","",.5979,"ug/L","",24.2661,"sigma-t","",7.70123,"mg/L","",33.2292,"ppt","",,"","",16.5,"C","",8.138,"pH","",,"","",92,"%",
"200412WQSBOO.csv","2008MAY30085315","1206042990","I28",  32.59383,-117.26400,"20041206",,18,"m","",.888,"ug/L","",24.2666,"sigma-t","",7.70117,"mg/L","",33.2306,"ppt","",,"","",16.5,"C","",8.147,"pH","",,"","",92,"%",
"200412WQSBOO.csv","2008MAY30085315","1206042991","I28",  32.59383,-117.26400,"20041206",,55,"m","",2.5157,"ug/L","",24.6013,"sigma-t","",7.77046,"mg/L","",33.1635,"ppt","",,"","",14.8,"C","",8.113,"pH","",,"","",90,"%",
"200412WQSBOO.csv","2008MAY30085315","1206042992","I29",  32.59450,-117.22300,"20041206",,2,"m","",.8352,"ug/L","",24.3387,"sigma-t","",7.79826,"mg/L","",33.2388,"ppt","",,"","",16.2,"C","",8.129,"pH","",,"","",91,"%",
"200412WQSBOO.csv","2008MAY30085315","1206042993","I29",  32.59450,-117.22300,"20041206",,18,"m","",1.7471,"ug/L","",24.4001,"sigma-t","",7.87578,"mg/L","",33.2109,"ppt","",,"","",15.9,"C","",8.127,"pH","",,"","",91,"%",
"200412WQSBOO.csv","2008MAY30085315","1206042994","I29",  32.59450,-117.22300,"20041206",,37,"m","",2.5622,"ug/L","",24.462,"sigma-t","",7.79333,"mg/L","",33.2036,"ppt","",,"","",15.6,"C","",8.124,"pH","",,"","",20,"%",
"200412WQSBOO.csv","2008MAY30085315","1206042995","I30",  32.59533,-117.19700,"20041206",955,2,"m","",.6737,"ug/L","",24.358,"sigma-t","",7.76252,"mg/L","",33.2438,"ppt","",,"","",16.2,"C","",8.12,"pH","",,"","",91,"%",
"200412WQSBOO.csv","2008MAY30085315","1206042996","I30",  32.59533,-117.19700,"20041206",955,18,"m","",1.8142,"ug/L","",24.4307,"sigma-t","",7.90679,"mg/L","",33.2124,"ppt","",,"","",15.7,"C","",8.127,"pH","",,"","",90,"%",
"200412WQSBOO.csv","2008MAY30085315","1206042997","I30",  32.59533,-117.19700,"20041206",955,27,"m","",1.7907,"ug/L","",24.4613,"sigma-t","",7.89488,"mg/L","",33.2192,"ppt","",,"","",15.6,"C","",8.131,"pH","",,"","",90,"%",
"200412WQSBOO.csv","2008MAY30085315","1206042998","I31",  32.59550,-117.17200,"20041206",,2,"m","",1.4373,"ug/L","",24.4464,"sigma-t","",7.91077,"mg/L","",33.2238,"ppt","",,"","",15.7,"C","",8.116,"pH","",,"","",89,"%",
"200412WQSBOO.csv","2008MAY30085315","1206042999","I31",  32.59550,-117.17200,"20041206",,12,"m","",1.7272,"ug/L","",24.4513,"sigma-t","",7.92727,"mg/L","",33.2214,"ppt","",,"","",15.7,"C","",8.122,"pH","",,"","",90,"%",
"200412WQSBOO.csv","2008MAY30085315","1208041277","I12",  32.53283,-117.18300,"20041208",1144,2,"m","",,"","",,"","",,"","",,"","",,"","",,"","",,"","<",.2,"mg/L",
"200412WQSBOO.csv","2008MAY30085315","1208041278","I14",  32.54300,-117.18400,"20041208",1214,2,"m","",,"","",,"","",,"","",,"","",,"","",,"","",,"","<",.2,"mg/L",
"200412WQSBOO.csv","2008MAY30085315","1208041279","I16",  32.53783,-117.18300,"20041208",1120,2,"m","",,"","",,"","",,"","",,"","",,"","",,"","",,"","<",.2,"mg/L",
"200412WQSBOO.csv","2008MAY30085315","1208041280","I18",  32.53617,-117.16100,"20041208",1054,2,"m","",,"","",,"","",,"","",,"","",,"","",,"","",,"","<",.2,"mg/L",
"200412WQSBOO.csv","2008MAY30085315","1208041281","I19",  32.53633,-117.12900,"20041208",1031,2,"m","",,"","",,"","",,"","",,"","",,"","",,"","",,"","<",.2,"mg/L",
"200412WQSBOO.csv","2008MAY30085315","1208041282","I22",  32.55333,-117.18500,"20041208",1225,2,"m","",,"","",,"","",,"","",,"","",,"","",,"","",,"","<",.2,"mg/L",
"200412WQSBOO.csv","2008MAY30085315","1208041283","I23",  32.55083,-117.16500,"20041208",1248,2,"m","",,"","",,"","",,"","",,"","",,"","",,"","",,"","<",.2,"mg/L",
"200412WQSBOO.csv","2008MAY30085315","1208041284","I24",  32.55667,-117.14500,"20041208",1001,2,"m","",,"","",,"","",,"","",,"","",,"","",,"","",,"","<",.2,"mg/L",
"200412WQSBOO.csv","2008MAY30085315","1208041285","I25",  32.56117,-117.14800,"20041208",943,2,"m","",,"","",,"","",,"","",,"","",,"","",,"","",,"","<",.2,"mg/L",
"200412WQSBOO.csv","2008MAY30085315","1208041286","I26",  32.57450,-117.14700,"20041208",927,2,"m","",,"","",,"","",,"","",,"","",,"","",,"","",,"","<",.2,"mg/L",
"200412WQSBOO.csv","2008MAY30085315","1208041287","I39",  32.57233,-117.16750,"20041208",910,2,"m","",,"","",,"","",,"","",,"","",,"","",,"","",,"","<",.2,"mg/L",
"200412WQSBOO.csv","2008MAY30085315","1208041288","I40",  32.55383,-117.13617,"20041208",1014,2,"m","",,"","",,"","",,"","",,"","",,"","",,"","",,"","<",.2,"mg/L",
"200412WQSBOO.csv","2008MAY30085315","1208041325","I12",  32.53283,-117.18300,"20041208",1144,2,"m","",,"","",,"","",,"","",,"","",2.8,"mg/L","",,"","",,"","",,"",
"200412WQSBOO.csv","2008MAY30085315","1208041326","I12",  32.53283,-117.18300,"20041208",1144,18,"m","",,"","",,"","",,"","",,"","",2.2,"mg/L","",,"","",,"","",,"",
"200412WQSBOO.csv","2008MAY30085315","1208041327","I12",  32.53283,-117.18300,"20041208",1144,27,"m","",,"","",,"","",,"","",,"","",2.8,"mg/L","",,"","",,"","",,"",
"200412WQSBOO.csv","2008MAY30085315","1208041328","I14",  32.54300,-117.18400,"20041208",1214,2,"m","",,"","",,"","",,"","",,"","",2.6,"mg/L","",,"","",,"","",,"",
"200412WQSBOO.csv","2008MAY30085315","1208041329","I14",  32.54300,-117.18400,"20041208",1214,18,"m","",,"","",,"","",,"","",,"","",2.6,"mg/L","",,"","",,"","",,"",
"200412WQSBOO.csv","2008MAY30085315","1208041330","I14",  32.54300,-117.18400,"20041208",1214,27,"m","",,"","",,"","",,"","",,"","",3.4,"mg/L","",,"","",,"","",,"",
"200412WQSBOO.csv","2008MAY30085315","1208041331","I16",  32.53783,-117.18300,"20041208",1120,2,"m","",,"","",,"","",,"","",,"","<",.2,"mg/L","",,"","",,"","",,"",
"200412WQSBOO.csv","2008MAY30085315","1208041332","I16",  32.53783,-117.18300,"20041208",1120,2,"m","",,"","",,"","",,"","",,"","<",.2,"mg/L","",,"","",,"","",,"",
"200412WQSBOO.csv","2008MAY30085315","1208041333","I16",  32.53783,-117.18300,"20041208",1120,18,"m","",,"","",,"","",,"","",,"","",2.4,"mg/L","",,"","",,"","",,"",
"200412WQSBOO.csv","2008MAY30085315","1208041334","I16",  32.53783,-117.18300,"20041208",1120,27,"m","",,"","",,"","",,"","",,"","",2.2,"mg/L","",,"","",,"","",,"",
"200412WQSBOO.csv","2008MAY30085315","1208041335","I18",  32.53617,-117.16100,"20041208",1054,2,"m","",,"","",,"","",,"","",,"","",1.6,"mg/L","",,"","",,"","",,"",
"200412WQSBOO.csv","2008MAY30085315","1208041336","I18",  32.53617,-117.16100,"20041208",1054,12,"m","",,"","",,"","",,"","",,"","<",.2,"mg/L","",,"","",,"","",,"",
"200412WQSBOO.csv","2008MAY30085315","1208041337","I18",  32.53617,-117.16100,"20041208",1054,18,"m","",,"","",,"","",,"","",,"","",2.7,"mg/L","",,"","",,"","",,"",
"200412WQSBOO.csv","2008MAY30085315","1208041338","I19",  32.53633,-117.12900,"20041208",1031,2,"m","",,"","",,"","",,"","",,"","",3.5,"mg/L","",,"","",,"","",,"",
"200412WQSBOO.csv","2008MAY30085315","1208041339","I19",  32.53633,-117.12900,"20041208",1031,6,"m","",,"","",,"","",,"","",,"","",4.4,"mg/L","",,"","",,"","",,"",
"200412WQSBOO.csv","2008MAY30085315","1208041340","I19",  32.53633,-117.12900,"20041208",1031,11,"m","",,"","",,"","",,"","",,"","",4.1,"mg/L","",,"","",,"","",,"",
"200412WQSBOO.csv","2008MAY30085315","1208041341","I22",  32.55333,-117.18500,"20041208",1225,2,"m","",,"","",,"","",,"","",,"","",2.4,"mg/L","",,"","",,"","",,"",
"200412WQSBOO.csv","2008MAY30085315","1208041342","I22",  32.55333,-117.18500,"20041208",1225,18,"m","",,"","",,"","",,"","",,"","",2.2,"mg/L","",,"","",,"","",,"",
"200412WQSBOO.csv","2008MAY30085315","1208041343","I22",  32.55333,-117.18500,"20041208",1225,27,"m","",,"","",,"","",,"","",,"","",8.7,"mg/L","",,"","",,"","",,"",
"200412WQSBOO.csv","2008MAY30085315","1208041344","I23",  32.55083,-117.16500,"20041208",1248,2,"m","",,"","",,"","",,"","",,"","",1.7,"mg/L","",,"","",,"","",,"",
"200412WQSBOO.csv","2008MAY30085315","1208041345","I23",  32.55083,-117.16500,"20041208",1248,12,"m","",,"","",,"","",,"","",,"","",1.8,"mg/L","",,"","",,"","",,"",
"200412WQSBOO.csv","2008MAY30085315","1208041346","I23",  32.55083,-117.16500,"20041208",1248,18,"m","",,"","",,"","",,"","",,"","",3.4,"mg/L","",,"","",,"","",,"",
"200412WQSBOO.csv","2008MAY30085315","1208041347","I24",  32.55667,-117.14500,"20041208",1001,2,"m","",,"","",,"","",,"","",,"","",4.1,"mg/L","",,"","",,"","",,"",
"200412WQSBOO.csv","2008MAY30085315","1208041348","I24",  32.55667,-117.14500,"20041208",1001,2,"m","",,"","",,"","",,"","",,"","",2.8,"mg/L","",,"","",,"","",,"",
"200412WQSBOO.csv","2008MAY30085315","1208041349","I24",  32.55667,-117.14500,"20041208",1001,6,"m","",,"","",,"","",,"","",,"","<",.2,"mg/L","",,"","",,"","",,"",
"200412WQSBOO.csv","2008MAY30085315","1208041350","I24",  32.55667,-117.14500,"20041208",1001,11,"m","",,"","",,"","",,"","",,"","<",.2,"mg/L","",,"","",,"","",,"",
"200412WQSBOO.csv","2008MAY30085315","1208041351","I25",  32.56117,-117.14800,"20041208",943,2,"m","",,"","",,"","",,"","",,"","",1.7,"mg/L","",,"","",,"","",,"",
"200412WQSBOO.csv","2008MAY30085315","1208041352","I25",  32.56117,-117.14800,"20041208",943,6,"m","",,"","",,"","",,"","",,"","",2.3,"mg/L","",,"","",,"","",,"",
"200412WQSBOO.csv","2008MAY30085315","1208041353","I25",  32.56117,-117.14800,"20041208",943,9,"m","",,"","",,"","",,"","",,"","",3.8,"mg/L","",,"","",,"","",,"",
"200412WQSBOO.csv","2008MAY30085315","1208041354","I26",  32.57450,-117.14700,"20041208",927,2,"m","",,"","",,"","",,"","",,"","<",.2,"mg/L","",,"","",,"","",,"",
"200412WQSBOO.csv","2008MAY30085315","1208041355","I26",  32.57450,-117.14700,"20041208",927,6,"m","",,"","",,"","",,"","",,"","<",.2,"mg/L","",,"","",,"","",,"",
"200412WQSBOO.csv","2008MAY30085315","1208041356","I26",  32.57450,-117.14700,"20041208",927,9,"m","",,"","",,"","",,"","",,"","",2.3,"mg/L","",,"","",,"","",,"",
"200412WQSBOO.csv","2008MAY30085315","1208041357","I39",  32.57233,-117.16750,"20041208",910,2,"m","",,"","",,"","",,"","",,"","<",.2,"mg/L","",,"","",,"","",,"",
"200412WQSBOO.csv","2008MAY30085315","1208041358","I39",  32.57233,-117.16750,"20041208",910,12,"m","",,"","",,"","",,"","",,"","<",.2,"mg/L","",,"","",,"","",,"",
"200412WQSBOO.csv","2008MAY30085315","1208041359","I39",  32.57233,-117.16750,"20041208",910,18,"m","",,"","",,"","",,"","",,"","",3.2,"mg/L","",,"","",,"","",,"",
"200412WQSBOO.csv","2008MAY30085315","1208041360","I40",  32.55383,-117.13617,"20041208",1014,2,"m","",,"","",,"","",,"","",,"","<",.2,"mg/L","",,"","",,"","",,"",
"200412WQSBOO.csv","2008MAY30085315","1208041361","I40",  32.55383,-117.13617,"20041208",1014,6,"m","",,"","",,"","",,"","",,"","<",.2,"mg/L","",,"","",,"","",,"",
"200412WQSBOO.csv","2008MAY30085315","1208041362","I40",  32.55383,-117.13617,"20041208",1014,9,"m","",,"","",,"","",,"","",,"","",4.4,"mg/L","",,"","",,"","",,"",
"200412WQSBOO.csv","2008MAY30085315","1208042060","I12",  32.53283,-117.18300,"20041208",1144,2,"m","",1.0666,"ug/L","",24.4105,"sigma-t","",7.90148,"mg/L","",33.1699,"ppt","",,"","",15.7,"C","",8.079,"pH","",,"","",82,"%",
"200412WQSBOO.csv","2008MAY30085315","1208042061","I12",  32.53283,-117.18300,"20041208",1144,18,"m","",2.4139,"ug/L","",24.445,"sigma-t","",7.90639,"mg/L","",33.1961,"ppt","",,"","",15.6,"C","",8.088,"pH","",,"","",85,"%",
"200412WQSBOO.csv","2008MAY30085315","1208042062","I12",  32.53283,-117.18300,"20041208",1144,27,"m","",1.8707,"ug/L","",24.4883,"sigma-t","",7.91642,"mg/L","",33.1953,"ppt","",,"","",15.4,"C","",8.09,"pH","",,"","",84,"%",
"200412WQSBOO.csv","2008MAY30085315","1208042063","I14",  32.54300,-117.18400,"20041208",1214,2,"m","",1.2928,"ug/L","",24.3926,"sigma-t","",7.84375,"mg/L","",33.1463,"ppt","",,"","",15.7,"C","",8.089,"pH","",,"","",84,"%",
"200412WQSBOO.csv","2008MAY30085315","1208042064","I14",  32.54300,-117.18400,"20041208",1214,18,"m","",2.2785,"ug/L","",24.4487,"sigma-t","",7.87809,"mg/L","",33.1986,"ppt","",,"","",15.6,"C","",8.096,"pH","",,"","",85,"%",
"200412WQSBOO.csv","2008MAY30085315","1208042065","I14",  32.54300,-117.18400,"20041208",1214,27,"m","",2.1993,"ug/L","",24.4945,"sigma-t","",7.82561,"mg/L","",33.197,"ppt","",,"","",15.4,"C","",8.096,"pH","",,"","",80,"%",
"200412WQSBOO.csv","2008MAY30085315","1208042066","I15",  32.53783,-117.18900,"20041208",,2,"m","",1.0443,"ug/L","",24.4187,"sigma-t","",7.8946,"mg/L","",33.2002,"ppt","",,"","",15.8,"C","",8.087,"pH","",,"","",85,"%",